Location: Newark
(33.6439°N, 114.9881°W)
Time: 17:42:29
(UTC+00:00)

Envisat - Pass Details

Date: 23 March 2019
Orbit: 764 x 766 km, 98.1° (Epoch: 14 October)

Event Time Altitude Azimuth Distance (km) Brightness Sun altitude
Rises 02:54:49 0° 185° (S) 3,213 6.2 -13.6°
Reaches altitude 10° 02:57:15 10° 193° (SSW) 2,291 5.5 -14.1°
Maximum altitude 03:01:57 39° 262° (W) 1,130 4.5 -15.1°
Drops below altitude 10° 03:06:42 10° 331° (NNW) 2,305 6.1 -16.0°
Sets 03:09:09 0° 339° (NNW) 3,235 6.7 -16.5°
